Phuket, Thailand

12:14 PM ICT on February 24, 2017 (GMT +0700)
Phuket International

Weather History for VTSP - September, 2012

Change the Weather History Date:

Saturday, September 15, 2012

  Actual Average Record
Temperature  
Mean Temperature 80 °F -  
Max Temperature 87 °F 87 °F 96 °F (2001)
Min Temperature 73 °F 76 °F 73 °F (2003)
Cooling Degree Days 15    
Growing Degree Days 30 (Base 50)    
Moisture  
Dew Point 74 °F    
Average Humidity 82    
Maximum Humidity 94    
Minimum Humidity 66    
Precipitation  
Precipitation 1.10 in 0.50 in - ()
Sea Level Pressure  
Sea Level Pressure 29.82 in    
Wind  
Wind Speed 9 mph ()    
Max Wind Speed 25 mph    
Max Gust Speed 32 mph    
Visibility 4.5 miles    
Events Rain    
Averages and records for this station are not official NWS values.
T = Trace of Precipitation, MM = Missing Value Source: Averaged Metar Reports

Daily Weather History Graph

Daily Weather History Graph

Search for Another Location

Airport or City:

Trip Planner

Search our weather history database for the weather conditions in past years. The results will help you decide how hot, cold, wet, or windy it might be!

Date:

Astronomy

Sep. 15, 2012 Rise Set
Actual Time 6:16 AM ICT 6:26 PM ICT
Civil Twilight 5:56 AM ICT 6:47 PM ICT
Nautical Twilight 5:31 AM ICT 7:11 PM ICT
Astronomical Twilight 5:07 AM ICT 7:36 PM ICT
Moon 5:16 AM ICT (9/15) 5:43 PM ICT (9/15)
Length of Visible Light 12h 51m
Length of Day
12h 09m
Waning Crescent, 1% of the Moon is Illuminated
Sep 15
Waning Crescent
Sep 16
New
Sep 23
First Quarter
Sep 30
Full
Oct 8
Last Quarter

Hourly Weather History & Observations

Time (ICT) Temp. Heat Index Dew Point Humidity Pressure Visibility Wind Dir Wind Speed Gust Speed Precip Events Conditions
12:00 AM 77.0 °F - 73.4 °F 89% 29.86 in 5.0 mi Calm Calm - N/A   Mostly Cloudy
12:30 AM 77.0 °F - 73.4 °F 89% 29.83 in 5.0 mi Calm Calm - N/A   Mostly Cloudy
1:00 AM 80 °F - 77 °F 87% 29.80 in 5 mi West 5.8 mph - -   Mist
1:00 AM 78.8 °F - 73.4 °F 83% 29.83 in 5.0 mi West 10.4 mph - N/A   Mostly Cloudy
1:30 AM 78.8 °F - 73.4 °F 83% 29.80 in 5.0 mi Variable 1.2 mph - N/A   Mostly Cloudy
2:00 AM 80.6 °F 86.2 °F 75.2 °F 84% 29.80 in 5.0 mi WSW 9.2 mph - N/A   Mostly Cloudy
2:30 AM 80.6 °F 86.2 °F 75.2 °F 84% 29.77 in 5.0 mi West 10.4 mph - N/A   Mostly Cloudy
3:00 AM 80.6 °F 85.4 °F 73.4 °F 79% 29.77 in 5.0 mi West 12.7 mph - N/A   Mostly Cloudy
3:30 AM 80.6 °F 86.2 °F 75.2 °F 84% 29.77 in 5.0 mi West 12.7 mph - N/A   Mostly Cloudy
4:00 AM 80.6 °F 85.4 °F 73.4 °F 79% 29.77 in 5.0 mi West 11.5 mph - N/A   Mostly Cloudy
4:30 AM 80.6 °F 85.4 °F 73.4 °F 79% 29.77 in 5.0 mi WSW 10.4 mph - N/A   Mostly Cloudy
5:00 AM 80.6 °F 85.4 °F 73.4 °F 79% 29.77 in 5.0 mi West 10.4 mph - N/A   Mostly Cloudy
5:30 AM 82.4 °F 88.2 °F 73.4 °F 74% 29.80 in 5.0 mi West 13.8 mph - N/A   Mostly Cloudy
6:00 AM 80.6 °F 85.4 °F 73.4 °F 79% 29.80 in 5.0 mi West 15.0 mph - N/A   Mostly Cloudy
6:30 AM 80.6 °F 85.4 °F 73.4 °F 79% 29.80 in 4.3 mi West 15.0 mph - N/A   Mostly Cloudy
7:00 AM 78 °F - 76 °F 92% 29.78 in 4 mi West 17.3 mph - - Rain Light Rain
7:00 AM 77.0 °F - 73.4 °F 89% 29.83 in 4.3 mi WNW 16.1 mph 28.8 mph N/A   Mostly Cloudy
7:30 AM 77.0 °F - 73.4 °F 89% 29.83 in 4.3 mi WNW 15.0 mph - N/A Rain Light Rain
8:00 AM 78.8 °F - 73.4 °F 83% 29.86 in 0.6 mi WNW 17.3 mph - N/A Rain Heavy Rain
8:30 AM 77.0 °F - 73.4 °F 89% 29.86 in 3.7 mi WNW 15.0 mph - N/A Rain Light Rain
9:00 AM 77.0 °F - 73.4 °F 89% 29.86 in 4.3 mi WNW 17.3 mph - N/A Rain Light Rain
9:30 AM 78.8 °F - 73.4 °F 83% 29.86 in 4.3 mi WNW 13.8 mph - N/A   Mostly Cloudy
10:00 AM 80.6 °F 85.4 °F 73.4 °F 79% 29.86 in 5.6 mi WNW 15.0 mph - N/A   Mostly Cloudy
10:30 AM 80.6 °F 85.4 °F 73.4 °F 79% 29.86 in 5.6 mi WNW 12.7 mph - N/A   Mostly Cloudy
11:00 AM 80.6 °F 85.4 °F 73.4 °F 79% 29.86 in 5.6 mi WNW 15.0 mph - N/A   Mostly Cloudy
11:30 AM 82.4 °F 89.5 °F 75.2 °F 79% 29.86 in 5.0 mi West 12.7 mph - N/A   Mostly Cloudy
12:00 PM 82.4 °F 89.5 °F 75.2 °F 79% 29.86 in 4.3 mi West 15.0 mph - N/A   Mostly Cloudy
12:30 PM 82.4 °F 89.5 °F 75.2 °F 79% 29.83 in 4.3 mi West 13.8 mph - N/A   Mostly Cloudy
1:00 PM 81 °F - 76 °F 80% 29.81 in 4 mi West 13.8 mph - -   Mist
1:00 PM 82.4 °F 89.5 °F 75.2 °F 79% 29.83 in 4.3 mi West 11.5 mph - N/A   Mostly Cloudy
1:30 PM 84.2 °F 90.9 °F 73.4 °F 70% 29.80 in 5.0 mi West 15.0 mph - N/A   Mostly Cloudy
2:00 PM 84.2 °F 90.9 °F 73.4 °F 70% 29.80 in 5.0 mi West 17.3 mph - N/A   Mostly Cloudy
2:30 PM 84.2 °F 89.6 °F 71.6 °F 66% 29.77 in 5.0 mi WNW 13.8 mph - N/A   Mostly Cloudy
3:00 PM 82.4 °F 88.2 °F 73.4 °F 74% 29.77 in 5.0 mi West 15.0 mph - N/A   Mostly Cloudy
3:30 PM 84.2 °F 90.9 °F 73.4 °F 70% 29.77 in 5.0 mi West 11.5 mph - N/A   Mostly Cloudy
4:00 PM 84.2 °F 92.3 °F 75.2 °F 74% 29.77 in 5.6 mi West 12.7 mph - N/A   Mostly Cloudy
4:30 PM 82.4 °F 88.2 °F 73.4 °F 74% 29.77 in 5.6 mi WNW 11.5 mph - N/A   Mostly Cloudy
5:00 PM 82.4 °F 89.5 °F 75.2 °F 79% 29.77 in 5.0 mi WNW 9.2 mph - N/A   Mostly Cloudy
5:30 PM 82.4 °F 89.5 °F 75.2 °F 79% 29.77 in 4.3 mi West 9.2 mph - N/A   Mostly Cloudy
6:00 PM 82.4 °F 89.5 °F 75.2 °F 79% 29.77 in 4.3 mi West 5.8 mph - N/A   Mostly Cloudy
6:30 PM 82.4 °F 89.5 °F 75.2 °F 79% 29.80 in 4.3 mi WNW 8.1 mph 20.7 mph N/A   Mostly Cloudy
7:00 PM 82 °F - 77 °F 81% 29.76 in 5 mi West 9.2 mph - -   Mist
7:00 PM 80.6 °F 86.2 °F 75.2 °F 84% 29.80 in 4.3 mi WNW 9.2 mph - N/A   Mostly Cloudy
7:30 PM 80.6 °F 85.4 °F 73.4 °F 79% 29.80 in 4.3 mi WNW 20.7 mph 32.2 mph N/A   Mostly Cloudy
8:00 PM 73.4 °F - 69.8 °F 88% 29.86 in 1.2 mi West 25.3 mph - N/A Rain Heavy Rain
8:30 PM 75.2 °F - 73.4 °F 94% 29.86 in 1.9 mi West 11.5 mph - N/A Rain Rain
9:00 PM 77.0 °F - 73.4 °F 89% 29.86 in 3.1 mi West 13.8 mph - N/A Rain Light Rain
9:30 PM 75.2 °F - 71.6 °F 89% 29.86 in 3.1 mi Variable 3.5 mph - N/A Rain Light Rain
10:00 PM 75.2 °F - 71.6 °F 89% 29.86 in 4.3 mi Variable 1.2 mph - N/A   Mostly Cloudy
10:30 PM 75.2 °F - 73.4 °F 94% 29.86 in 4.3 mi Variable 2.3 mph - N/A   Mostly Cloudy
11:00 PM 75.2 °F - 73.4 °F 94% 29.86 in 4.3 mi Calm Calm - N/A   Mostly Cloudy
11:30 PM 75.2 °F - 73.4 °F 94% 29.86 in 4.3 mi Calm Calm - N/A   Mostly Cloudy